When you browse on this site, cookies collect data to enhance your experience and personalize the content and advertising you see.
Visit our Privacy Policy to learn more. By continuing to use the site, you agree to this use of cookies and data.
  • In Austria
  • List of Countries
  • For 7 days
  • Water Temperature
  • Satellite Maps
  • Weather Map
  • News
  • Weather Widgets
  • user-avatar
    Login

    Hourly Weather Wlodzimierz

    Today, 19 December, Wednesday

    Time Temperature Precipitation Wind Pressure Humidity
    00:00 -1°C° 0 mm 3 mps 759 mmHg 89%
    01:00 -2°C° 0 mm 3 mps 758 mmHg 89%
    02:00 -3°C° 0 mm 4 mps 758 mmHg 88%
    03:00 -3°C° 0 mm 4 mps 758 mmHg 87%
    04:00 -3°C° 0 mm 4 mps 758 mmHg 87%
    05:00 -3°C° 0 mm 4 mps 758 mmHg 87%
    06:00 -3°C° 0 mm 4 mps 758 mmHg 86%
    07:00 -3°C° 0 mm 4 mps 758 mmHg 86%
    08:00 -4°C° 0 mm 5 mps 757 mmHg 84%
    09:00 -4°C° 0 mm 5 mps 757 mmHg 82%
    10:00 -2°C° 0 mm 5 mps 757 mmHg 79%
    11:00 -2°C° 0 mm 5 mps 756 mmHg 77%
    12:00 -1°C° 0 mm 5 mps 756 mmHg 75%
    13:00 -1°C° 0 mm 5 mps 756 mmHg 73%
    14:00 -1°C° 0 mm 5 mps 755 mmHg 75%
    15:00 -2°C° 0 mm 5 mps 755 mmHg 76%
    16:00 -2°C° 0 mm 5 mps 755 mmHg 77%
    17:00 -2°C° 0 mm 5 mps 755 mmHg 77%
    18:00 -2°C° 0 mm 5 mps 754 mmHg 76%
    19:00 -2°C° 0 mm 5 mps 754 mmHg 76%
    20:00 -2°C° 0 mm 5 mps 754 mmHg 76%
    21:00 -2°C° 0 mm 5 mps 754 mmHg 76%
    22:00 -2°C° 0 mm 5 mps 754 mmHg 75%
    23:00 -2°C° 0 mm 5 mps 753 mmHg 75%

    Tomorrow, 20 December, Thursday

    Time Temperature Precipitation Wind Pressure Humidity
    00:00 -2°C° 0 mm 4 mps 753 mmHg 75%
    01:00 -2°C° 0 mm 4 mps 753 mmHg 75%
    02:00 -2°C° 0 mm 4 mps 753 mmHg 75%
    03:00 -2°C° 0 mm 4 mps 753 mmHg 75%
    04:00 -1°C° 0 mm 3 mps 753 mmHg 75%
    05:00 -1°C° 0 mm 3 mps 753 mmHg 75%
    06:00 -1°C° 0 mm 3 mps 753 mmHg 75%
    07:00 -1°C° 0 mm 3 mps 753 mmHg 74%
    08:00 -2°C° 0 mm 4 mps 753 mmHg 74%
    09:00 -2°C° 0 mm 4 mps 753 mmHg 73%
    10:00 -2°C° 0 mm 4 mps 753 mmHg 72%
    11:00 -2°C° 0 mm 4 mps 752 mmHg 73%
    12:00 -2°C° 0 mm 4 mps 752 mmHg 74%
    13:00 -2°C° 0 mm 4 mps 752 mmHg 74%
    14:00 -2°C° 0 mm 4 mps 752 mmHg 78%
    15:00 -1°C° 0 mm 3 mps 752 mmHg 81%
    16:00 -1°C° 0 mm 3 mps 752 mmHg 84%
    17:00 -1°C° 0.1 mm 3 mps 752 mmHg 86%
    18:00 -2°C° 0.1 mm 4 mps 752 mmHg 87%
    19:00 -1°C° 0.1 mm 4 mps 752 mmHg 88%
    20:00 -1°C° 0.1 mm 4 mps 752 mmHg 89%
    21:00 -1°C° 0.1 mm 4 mps 752 mmHg 89%
    22:00 -1°C° 0.1 mm 4 mps 752 mmHg 89%
    23:00 -1°C° 0 mm 4 mps 752 mmHg 90%

    Day after tomorrow, 21 December, Friday

    Time Temperature Precipitation Wind Pressure Humidity
    00:00 -1°C° 0 mm 4 mps 752 mmHg 90%
    01:00 -1°C° 0 mm 4 mps 752 mmHg 90%
    02:00 -1°C° 0 mm 4 mps 752 mmHg 90%
    03:00 -1°C° 0 mm 4 mps 751 mmHg 90%
    04:00 -1°C° 0 mm 4 mps 751 mmHg 90%
    05:00 -1°C° 0 mm 4 mps 751 mmHg 90%
    06:00 -1°C° 0 mm 4 mps 751 mmHg 90%
    07:00 -1°C° 0 mm 5 mps 750 mmHg 90%
    08:00 0°C° 0.1 mm 5 mps 750 mmHg 89%
    09:00 0°C° 0.1 mm 5 mps 750 mmHg 88%
    10:00 0°C° 0.1 mm 5 mps 749 mmHg 87%
    11:00 0°C° 0 mm 5 mps 749 mmHg 87%
    12:00 +1°C° 0 mm 5 mps 748 mmHg 86%
    13:00 +1°C° 0 mm 5 mps 747 mmHg 85%
    14:00 +1°C° 0.2 mm 5 mps 747 mmHg 86%
    15:00 +1°C° 0.2 mm 5 mps 746 mmHg 87%
    16:00 0°C° 0.2 mm 5 mps 745 mmHg 88%
    17:00 +1°C° 0.2 mm 5 mps 745 mmHg 88%
    18:00 +1°C° 0.2 mm 5 mps 744 mmHg 88%
    19:00 +1°C° 0.2 mm 6 mps 743 mmHg 87%
    20:00 +1°C° 1 mm 6 mps 742 mmHg 89%
    21:00 +2°C° 1 mm 6 mps 741 mmHg 90%
    22:00 +2°C° 1 mm 7 mps 741 mmHg 91%
    23:00 +3°C° 0.3 mm 7 mps 740 mmHg 90%

    22 December, Saturday

    Time Temperature Precipitation Wind Pressure Humidity
    00:00 +4°C° 0.3 mm 7 mps 740 mmHg 88%
    01:00 +4°C° 0.3 mm 7 mps 740 mmHg 87%
    02:00 +4°C° 0 mm 7 mps 740 mmHg 86%
    03:00 +4°C° 0 mm 7 mps 740 mmHg 84%
    04:00 +3°C° 0 mm 7 mps 741 mmHg 83%
    05:00 +3°C° 0 mm 6 mps 741 mmHg 84%
    06:00 +2°C° 0 mm 6 mps 741 mmHg 85%
    07:00 +2°C° 0 mm 6 mps 742 mmHg 86%
    08:00 +2°C° 0 mm 6 mps 742 mmHg 87%
    09:00 +3°C° 0 mm 6 mps 742 mmHg 87%
    10:00 +3°C° 0 mm 6 mps 742 mmHg 87%
    11:00 +3°C° 0.5 mm 6 mps 742 mmHg 88%
    12:00 +3°C° 0.5 mm 6 mps 741 mmHg 88%
    13:00 +4°C° 0.5 mm 6 mps 741 mmHg 88%
    14:00 +5°C° 0.6 mm 5 mps 741 mmHg 89%
    15:00 +3°C° 0.6 mm 5 mps 741 mmHg 91%
    16:00 +3°C° 0.6 mm 5 mps 742 mmHg 92%
    17:00 +5°C° 0.7 mm 5 mps 742 mmHg 92%
    18:00 +4°C° 0.7 mm 6 mps 742 mmHg 91%
    19:00 +4°C° 0.7 mm 7 mps 743 mmHg 90%
    20:00 +4°C° 0.3 mm 7 mps 743 mmHg 87%
    21:00 +4°C° 0.3 mm 8 mps 744 mmHg 83%
    22:00 +3°C° 0.3 mm 9 mps 744 mmHg 80%
    23:00 +3°C° 0.2 mm 9 mps 744 mmHg 80%

    23 December, Sunday

    Time Temperature Precipitation Wind Pressure Humidity
    00:00 +3°C° 0.2 mm 9 mps 744 mmHg 80%
    01:00 +3°C° 0.2 mm 9 mps 745 mmHg 79%
    02:00 +3°C° 0 mm 9 mps 745 mmHg 80%
    03:00 +2°C° 0 mm 8 mps 745 mmHg 81%
    04:00 +2°C° 0 mm 8 mps 745 mmHg 82%
    05:00 +3°C° 0.2 mm 7 mps 746 mmHg 83%
    06:00 +3°C° 0.2 mm 7 mps 746 mmHg 84%
    07:00 +3°C° 0.2 mm 6 mps 747 mmHg 86%
    08:00 +3°C° 0.6 mm 6 mps 747 mmHg 86%
    09:00 +3°C° 0.6 mm 6 mps 747 mmHg 86%
    10:00 +3°C° 0.6 mm 6 mps 748 mmHg 87%
    11:00 +3°C° 0.4 mm 6 mps 748 mmHg 86%
    12:00 +3°C° 0.4 mm 7 mps 748 mmHg 85%
    13:00 +3°C° 0.4 mm 7 mps 748 mmHg 84%
    14:00 +3°C° 0.2 mm 7 mps 748 mmHg 84%
    15:00 +3°C° 0.2 mm 6 mps 749 mmHg 84%
    16:00 +3°C° 0.2 mm 6 mps 749 mmHg 84%
    17:00 +3°C° 0.3 mm 6 mps 749 mmHg 85%
    18:00 +3°C° 0.3 mm 6 mps 749 mmHg 85%
    19:00 +3°C° 0.3 mm 6 mps 749 mmHg 86%
    20:00 +2°C° 0.2 mm 5 mps 749 mmHg 87%
    21:00 +3°C° 0.2 mm 4 mps 749 mmHg 88%
    22:00 +3°C° 0.2 mm 4 mps 749 mmHg 89%
    23:00 +3°C° 1.1 mm 4 mps 749 mmHg 89%

    24 December, Monday

    Time Temperature Precipitation Wind Pressure Humidity
    00:00 +2°C° 1.1 mm 5 mps 750 mmHg 89%
    01:00 +2°C° 1.1 mm 5 mps 750 mmHg 89%
    02:00 +1°C° 0.4 mm 5 mps 750 mmHg 89%
    03:00 +1°C° 0.4 mm 5 mps 751 mmHg 88%
    04:00 0°C° 0.4 mm 5 mps 751 mmHg 88%
    05:00 -1°C° 0 mm 4 mps 752 mmHg 90%
    06:00 0°C° 0 mm 3 mps 753 mmHg 91%
    07:00 -1°C° 0 mm 2 mps 754 mmHg 93%
    08:00 +1°C° 0 mm 2 mps 754 mmHg 91%
    09:00 +1°C° 0 mm 2 mps 754 mmHg 90%
    10:00 +2°C° 0 mm 2 mps 755 mmHg 88%
    11:00 +1°C° 0.1 mm 3 mps 755 mmHg 88%
    12:00 +2°C° 0.1 mm 3 mps 755 mmHg 88%
    13:00 +1°C° 0.1 mm 4 mps 755 mmHg 88%
    14:00 +1°C° 0.2 mm 4 mps 755 mmHg 89%
    15:00 +3°C° 0.2 mm 4 mps 755 mmHg 90%
    16:00 +3°C° 0.2 mm 4 mps 755 mmHg 90%
    17:00 +1°C° 0.2 mm 4 mps 755 mmHg 91%
    18:00 +1°C° 0.2 mm 4 mps 755 mmHg 92%
    19:00 +1°C° 0.2 mm 4 mps 755 mmHg 93%
    20:00 +1°C° 0.1 mm 5 mps 755 mmHg 91%
    21:00 +1°C° 0.1 mm 5 mps 755 mmHg 90%
    22:00 +1°C° 0.1 mm 6 mps 755 mmHg 88%
    23:00 +1°C° 0.1 mm 6 mps 755 mmHg 87%
    Show more